| time (UTC) | temp F | wind direction | speed knots | gust knots | rain 1hr in | rain 24hr in | rain mn in | humidity % | barometer mb |
| 20260507003542 | 51 | 270 | 2.6 | 3.5 | 0.00 | 0.00 | 0.00 | 68 | 1014.4 |
| 20260507003037 | 51 | 270 | 1.7 | 2.6 | 0.00 | 0.00 | 0.00 | 69 | 1014.4 |
| 20260507002534 | 52 | 270 | 3.5 | 4.3 | 0.00 | 0.00 | 0.00 | 69 | 1014.4 |
| 20260507002025 | 52 | 270 | 4.3 | 5.2 | 0.00 | 0.00 | 0.00 | 70 | 1014.4 |
| 20260507001521 | 52 | 270 | 3.5 | 3.5 | 0.00 | 0.00 | 0.00 | 71 | 1014.4 |
| 20260507001019 | 52 | 270 | 3.5 | 3.5 | 0.00 | 0.00 | 0.00 | 71 | 1014.4 |
| 20260507000515 | 52 | 270 | 2.6 | 3.5 | 0.00 | 0.00 | 0.00 | 70 | 1014.4 |
| 20260507000010 | 53 | 270 | 2.6 | 3.5 | 0.00 | 0.00 | 0.00 | 70 | 1014.4 |
| 20260506235507 | 53 | 270 | 3.5 | 4.3 | 0.00 | 0.00 | 0.00 | 70 | 1014.4 |
| 20260506234958 | 53 | 270 | 2.6 | 4.3 | 0.00 | 0.00 | 0.00 | 68 | 1014.1 |
| 20260506234455 | 53 | 270 | 3.5 | 5.2 | 0.00 | 0.00 | 0.00 | 67 | 1014.1 |
| 20260506233952 | 53 | 270 | 4.3 | 6.1 | 0.00 | 0.00 | 0.00 | 67 | 1014.4 |
| 20260506233449 | 54 | 272 | 4.3 | 6.1 | 0.00 | 0.00 | 0.00 | 66 | 1014.1 |
| 20260506232945 | 54 | 272 | 4.3 | 5.2 | 0.00 | 0.00 | 0.00 | 66 | 1014.1 |
| 20260506232442 | 54 | 273 | 4.3 | 6.1 | 0.00 | 0.00 | 0.00 | 66 | 1014.4 |
| 20260506231937 | 54 | 273 | 4.3 | 5.2 | 0.00 | 0.00 | 0.00 | 67 | 1014.4 |
| 20260506231435 | 54 | 273 | 3.5 | 5.2 | 0.00 | 0.00 | 0.00 | 66 | 1014.4 |
| 20260506230932 | 54 | 273 | 2.6 | 3.5 | 0.00 | 0.00 | 0.00 | 65 | 1014.4 |
| 20260506230428 | 55 | 273 | 5.2 | 7.0 | 0.00 | 0.00 | 0.00 | 64 | 1014.4 |
| 20260506225925 | 55 | 275 | 6.1 | 7.0 | 0.00 | 0.00 | 0.00 | 62 | 1014.4 |
| 20260506225422 | 55 | 275 | 4.3 | 6.1 | 0.00 | 0.00 | 0.00 | 63 | 1014.4 |
| 20260506224919 | 55 | 275 | 2.6 | 3.5 | 0.00 | 0.00 | 0.00 | 64 | 1014.8 |
| 20260506224416 | 55 | 276 | 4.3 | 6.1 | 0.00 | 0.00 | 0.00 | 64 | 1014.8 |
| 20260506223913 | 54 | 280 | 3.5 | 6.1 | 0.00 | 0.00 | 0.00 | 65 | 1014.8 |
| 20260506223408 | 54 | 280 | 3.5 | 4.3 | 0.00 | 0.00 | 0.00 | 67 | 1014.8 |
| 20260506222906 | 54 | 280 | 3.5 | 4.3 | 0.00 | 0.00 | 0.00 | 66 | 1014.8 |
| 20260506222402 | 54 | 313 | 2.6 | 4.3 | 0.00 | 0.00 | 0.00 | 64 | 1014.8 |
| 20260506221859 | 54 | 292 | 4.3 | 6.1 | 0.00 | 0.00 | 0.00 | 66 | 1014.8 |
| 20260506221356 | 54 | 298 | 3.5 | 4.3 | 0.00 | 0.00 | 0.00 | 63 | 1014.8 |
| 20260506220853 | 53 | 298 | 3.5 | 4.3 | 0.00 | 0.00 | 0.00 | 61 | 1014.8 |
| 20260506220349 | 53 | 263 | 4.3 | 6.1 | 0.00 | 0.00 | 0.00 | 60 | 1014.8 |
| 20260506215846 | 54 | 269 | 6.1 | 8.7 | 0.00 | 0.00 | 0.00 | 59 | 1014.8 |
| 20260506215341 | 54 | 283 | 5.2 | 7.8 | 0.00 | 0.00 | 0.00 | 59 | 1014.4 |
| 20260506214833 | 54 | 269 | 3.5 | 4.3 | 0.00 | 0.00 | 0.00 | 60 | 1014.4 |
| 20260506214329 | 54 | 269 | 4.3 | 5.2 | 0.00 | 0.00 | 0.00 | 58 | 1014.4 |
| 20260506213828 | 54 | 269 | 3.5 | 4.3 | 0.00 | 0.00 | 0.00 | 57 | 1014.4 |
| 20260506213324 | 54 | 298 | 4.3 | 6.1 | 0.00 | 0.00 | 0.00 | 59 | 1014.8 |
| 20260506212822 | 54 | 271 | 4.3 | 7.8 | 0.00 | 0.00 | 0.00 | 56 | 1014.4 |
| 20260506212317 | 54 | 290 | 5.2 | 7.8 | 0.00 | 0.00 | 0.00 | 55 | 1014.4 |
| 20260506211813 | 55 | 278 | 5.2 | 7.0 | 0.00 | 0.00 | 0.00 | 53 | 1014.4 |
| 20260506211309 | 54 | 281 | 6.1 | 7.8 | 0.00 | 0.00 | 0.00 | 52 | 1014.1 |
| 20260506210807 | 54 | 273 | 6.1 | 8.7 | 0.00 | 0.00 | 0.00 | 56 | 1014.1 |
| 20260506210303 | 55 | 274 | 7.8 | 9.6 | 0.00 | 0.00 | 0.00 | 61 | 1014.1 |
| 20260506205800 | 55 | 269 | 3.5 | 6.1 | 0.00 | 0.00 | 0.00 | 63 | 1014.1 |
| 20260506205256 | 54 | 297 | 2.6 | 3.5 | 0.00 | 0.00 | 0.00 | 58 | 1014.1 |
| 20260506204753 | 54 | 297 | 3.5 | 4.3 | 0.00 | 0.00 | 0.00 | 60 | 1014.1 |
| 20260506204251 | 55 | 297 | 4.3 | 6.1 | 0.00 | 0.00 | 0.00 | 63 | 1014.1 |
| 20260506203748 | 55 | 301 | 4.3 | 5.2 | 0.00 | 0.00 | 0.00 | 61 | 1014.1 |
| 20260506203245 | 55 | 301 | 4.3 | 7.0 | 0.00 | 0.00 | 0.00 | 61 | 1014.1 |
| 20260506202742 | 55 | 289 | 5.2 | 7.8 | 0.00 | 0.00 | 0.00 | 60 | 1014.1 |
| 20260506202239 | 55 | 278 | 4.3 | 6.1 | 0.00 | 0.00 | 0.00 | 61 | 1014.1 |
| 20260506201736 | 55 | 284 | 4.3 | 7.8 | 0.00 | 0.00 | 0.00 | 61 | 1014.1 |
| 20260506201232 | 55 | 298 | 3.5 | 4.3 | 0.00 | 0.00 | 0.00 | 61 | 1014.1 |
| 20260506200730 | 55 | 298 | 4.3 | 7.0 | 0.00 | 0.00 | 0.00 | 61 | 1014.1 |
| 20260506200226 | 55 | 306 | 5.2 | 7.8 | 0.00 | 0.00 | 0.00 | 60 | 1014.1 |
| 20260506195722 | 55 | 303 | 5.2 | 7.8 | 0.00 | 0.00 | 0.00 | 58 | 1014.1 |
| 20260506195218 | 55 | 295 | 5.2 | 7.0 | 0.00 | 0.00 | 0.00 | 56 | 1014.1 |
| 20260506194710 | 55 | 276 | 6.1 | 9.6 | 0.00 | 0.00 | 0.00 | 56 | 1014.1 |
| 20260506194206 | 55 | 274 | 3.5 | 5.2 | 0.00 | 0.00 | 0.00 | 57 | 1014.1 |
| 20260506193659 | 55 | 297 | 4.3 | 6.1 | 0.00 | 0.00 | 0.00 | 57 | 1014.1 |
| 20260506193155 | 55 | 269 | 6.1 | 8.7 | 0.00 | 0.00 | 0.00 | 59 | 1014.1 |
| 20260506192651 | 55 | 302 | 5.2 | 7.8 | 0.00 | 0.00 | 0.00 | 61 | 1014.1 |
| 20260506192147 | 55 | 281 | 4.3 | 6.1 | 0.00 | 0.00 | 0.00 | 60 | 1014.1 |
| 20260506191640 | 55 | 281 | 4.3 | 6.1 | 0.00 | 0.00 | 0.00 | 60 | 1014.1 |
| 20260506191136 | 55 | 281 | 3.5 | 5.2 | 0.00 | 0.00 | 0.00 | 63 | 1014.1 |
| 20260506190633 | 55 | 302 | 3.5 | 4.3 | 0.00 | 0.00 | 0.00 | 58 | 1014.1 |
| 20260506190129 | 55 | 302 | 3.5 | 5.2 | 0.00 | 0.00 | 0.00 | 63 | 1014.1 |
| 20260506185627 | 55 | 302 | 5.2 | 6.1 | 0.00 | 0.00 | 0.00 | 58 | 1014.1 |
| 20260506185123 | 55 | 292 | 3.5 | 4.3 | 0.00 | 0.00 | 0.00 | 62 | 1014.1 |
| 20260506184620 | 54 | 302 | 3.5 | 4.3 | 0.00 | 0.00 | 0.00 | 60 | 1014.4 |
| 20260506184117 | 54 | 272 | 4.3 | 6.1 | 0.00 | 0.00 | 0.00 | 60 | 1014.4 |
| 20260506183614 | 54 | 301 | 3.5 | 4.3 | 0.00 | 0.00 | 0.00 | 64 | 1014.4 |
| 20260506183109 | 54 | 301 | 4.3 | 5.2 | 0.00 | 0.00 | 0.00 | 64 | 1014.4 |
| 20260506182607 | 55 | 274 | 2.6 | 3.5 | 0.00 | 0.00 | 0.00 | 64 | 1014.4 |
| 20260506182059 | 54 | 274 | 3.5 | 4.3 | 0.00 | 0.00 | 0.00 | 62 | 1014.4 |
| 20260506181557 | 54 | 267 | 0.9 | 4.3 | 0.00 | 0.00 | 0.00 | 60 | 1014.1 |
| 20260506181053 | 54 | 280 | 3.5 | 4.3 | 0.00 | 0.00 | 0.00 | 60 | 1014.4 |
| 20260506180550 | 54 | 263 | 3.5 | 5.2 | 0.00 | 0.00 | 0.00 | 65 | 1014.1 |
| 20260506180047 | 54 | 323 | 3.5 | 4.3 | 0.00 | 0.00 | 0.00 | 65 | 1014.4 |
| 20260506175543 | 54 | 327 | 3.5 | 5.2 | 0.00 | 0.00 | 0.00 | 65 | 1014.4 |
| 20260506175039 | 54 | 296 | 3.5 | 3.5 | 0.00 | 0.00 | 0.00 | 63 | 1014.4 |
| 20260506174538 | 54 | 296 | 3.5 | 3.5 | 0.00 | 0.00 | 0.00 | 63 | 1014.4 |
| 20260506174034 | 54 | 296 | 2.6 | 3.5 | 0.00 | 0.00 | 0.00 | 64 | 1014.4 |
| 20260506173532 | 54 | 296 | 3.5 | 5.2 | 0.00 | 0.00 | 0.00 | 64 | 1014.4 |
| 20260506173028 | 54 | 280 | 5.2 | 7.8 | 0.00 | 0.00 | 0.00 | 64 | 1014.4 |
| 20260506172526 | 54 | 311 | 4.3 | 7.0 | 0.00 | 0.00 | 0.00 | 66 | 1014.4 |
| 20260506172022 | 55 | 319 | 3.5 | 5.2 | 0.00 | 0.00 | 0.00 | 65 | 1014.1 |
| 20260506171519 | 55 | 343 | 1.7 | 2.6 | 0.00 | 0.00 | 0.00 | 64 | 1014.1 |
| 20260506171017 | 55 | 340 | 5.2 | 7.8 | 0.00 | 0.00 | 0.00 | 65 | 1014.1 |
| 20260506170514 | 56 | 331 | 7.0 | 9.6 | 0.00 | 0.00 | 0.00 | 64 | 1013.7 |
| 20260506170006 | 56 | 302 | 4.3 | 5.2 | 0.00 | 0.00 | 0.00 | 62 | 1013.7 |
| 20260506165504 | 56 | 320 | 5.2 | 8.7 | 0.00 | 0.00 | 0.00 | 67 | 1013.7 |
| 20260506165000 | 55 | 325 | 5.2 | 7.8 | 0.00 | 0.00 | 0.00 | 66 | 1013.7 |
| 20260506164457 | 55 | 336 | 7.0 | 10.4 | 0.00 | 0.00 | 0.00 | 69 | 1014.1 |
| 20260506163954 | 55 | 349 | 4.3 | 5.2 | 0.00 | 0.00 | 0.00 | 66 | 1014.1 |
| 20260506163449 | 56 | 352 | 7.0 | 7.8 | 0.00 | 0.00 | 0.00 | 66 | 1014.1 |
| 20260506162944 | 56 | 283 | 3.5 | 5.2 | 0.00 | 0.00 | 0.00 | 67 | 1014.1 |
| 20260506162442 | 55 | 318 | 5.2 | 8.7 | 0.00 | 0.00 | 0.00 | 67 | 1014.1 |
| 20260506161940 | 55 | 311 | 3.5 | 6.1 | 0.00 | 0.00 | 0.00 | 70 | 1013.7 |
| 20260506161437 | 55 | 346 | 5.2 | 7.0 | 0.00 | 0.00 | 0.00 | 71 | 1013.4 |
| 20260506152802 | 54 | 329 | 5.2 | 7.0 | 0.00 | 0.00 | 0.00 | 67 | 1013.7 |
| 20260506152259 | 54 | 329 | 5.2 | 7.0 | 0.00 | 0.00 | 0.00 | 67 | 1013.7 |
| 20260506151758 | 54 | 336 | 6.1 | 8.7 | 0.00 | 0.00 | 0.00 | 67 | 1013.7 |
| 20260506150647 | 54 | 340 | 2.6 | 3.5 | 0.00 | 0.00 | 0.00 | 71 | 1013.4 |
| 20260506150144 | 54 | 340 | 2.6 | 3.5 | 0.00 | 0.00 | 0.00 | 71 | 1013.4 |
| 20260506145641 | 54 | 331 | 5.2 | 8.7 | 0.00 | 0.00 | 0.00 | 72 | 1013.4 |
| 20260506145138 | 53 | 324 | 3.5 | 7.0 | 0.00 | 0.00 | 0.00 | 75 | 1013.1 |
| 20260506144636 | 53 | 324 | 5.2 | 6.1 | 0.00 | 0.00 | 0.00 | 76 | 1013.4 |
| 20260506144132 | 53 | 311 | 2.6 | 5.2 | 0.00 | 0.00 | 0.00 | 76 | 1013.1 |
| 20260506143630 | 52 | 311 | 6.1 | 7.8 | 0.00 | 0.00 | 0.00 | 77 | 1013.1 |
| 20260506143127 | 52 | 336 | 4.3 | 7.0 | 0.00 | 0.00 | 0.00 | 78 | 1013.1 |
| 20260506142626 | 52 | 336 | 4.3 | 5.2 | 0.00 | 0.00 | 0.00 | 77 | 1013.1 |
| 20260506142123 | 52 | 347 | 7.8 | 9.6 | 0.00 | 0.00 | 0.00 | 81 | 1013.1 |
| 20260506141621 | 51 | 311 | 4.3 | 6.1 | 0.00 | 0.00 | 0.00 | 79 | 1013.1 |
| 20260506141119 | 51 | 338 | 5.2 | 9.6 | 0.00 | 0.00 | 0.00 | 80 | 1013.1 |
| 20260506140616 | 51 | 312 | 5.2 | 7.0 | 0.00 | 0.00 | 0.00 | 82 | 1013.1 |
| 20260506140113 | 51 | 306 | 5.2 | 7.8 | 0.00 | 0.00 | 0.00 | 80 | 1013.1 |
| 20260506135610 | 51 | 327 | 4.3 | 7.0 | 0.00 | 0.00 | 0.00 | 83 | 1013.1 |
| 20260506135106 | 51 | 306 | 3.5 | 4.3 | 0.00 | 0.00 | 0.00 | 81 | 1013.1 |
| 20260506134603 | 50 | 306 | 5.2 | 7.0 | 0.00 | 0.00 | 0.00 | 84 | 1013.4 |
| 20260506134058 | 50 | 320 | 5.2 | 7.8 | 0.00 | 0.00 | 0.00 | 84 | 1013.4 |
| 20260506133556 | 50 | 308 | 4.3 | 7.0 | 0.00 | 0.00 | 0.00 | 85 | 1013.1 |
| 20260506133053 | 50 | 292 | 4.3 | 7.0 | 0.00 | 0.00 | 0.00 | 86 | 1013.1 |
| 20260506132550 | 49 | 300 | 4.3 | 5.2 | 0.00 | 0.00 | 0.00 | 87 | 1013.1 |
| 20260506132047 | 49 | 284 | 4.3 | 5.2 | 0.00 | 0.00 | 0.00 | 88 | 1013.1 |
| 20260506131544 | 49 | 302 | 5.2 | 7.0 | 0.00 | 0.00 | 0.00 | 89 | 1013.1 |
| 20260506131041 | 48 | 300 | 3.5 | 5.2 | 0.00 | 0.00 | 0.00 | 89 | 1013.1 |
| 20260506130538 | 48 | 317 | 3.5 | 5.2 | 0.00 | 0.00 | 0.00 | 90 | 1013.1 |
| 20260506130035 | 48 | 317 | 2.6 | 3.5 | 0.00 | 0.00 | 0.00 | 91 | 1013.1 |
| 20260506125533 | 47 | 317 | 3.5 | 5.2 | 0.00 | 0.00 | 0.00 | 91 | 1013.1 |
| 20260506125031 | 46 | 332 | 2.6 | 4.3 | 0.00 | 0.00 | 0.00 | 92 | 1013.1 |
| 20260506124529 | 46 | 332 | 1.7 | 3.5 | 0.00 | 0.00 | 0.00 | 94 | 1013.1 |
| 20260506124026 | 45 | 332 | 1.7 | 2.6 | 0.00 | 0.00 | 0.00 | 93 | 1013.1 |
| 20260506123524 | 45 | 332 | 0.9 | 1.7 | 0.00 | 0.00 | 0.00 | 94 | 1012.6 |
| 20260506123022 | 45 | 332 | 1.7 | 4.3 | 0.00 | 0.00 | 0.00 | 96 | 1012.6 |
| 20260506122518 | 45 | 340 | 2.6 | 4.3 | 0.00 | 0.00 | 0.00 | 98 | 1012.6 |
| 20260506122016 | 45 | 340 | 1.7 | 3.5 | 0.00 | 0.00 | 0.00 | 99 | 1012.3 |
| 20260506121514 | 44 | 340 | 1.7 | 3.5 | 0.00 | 0.00 | 0.00 | 100 | 1012.3 |
| 20260506121010 | 44 | 340 | 1.7 | 2.6 | 0.00 | 0.00 | 0.00 | 100 | 1012.0 |
| 20260506120508 | 44 | 340 | 3.5 | 4.3 | 0.00 | 0.00 | 0.00 | 100 | 1012.0 |
| 20260506120005 | 44 | 340 | 3.5 | 4.3 | 0.00 | 0.00 | 0.00 | 100 | 1012.0 |
| 20260506115502 | 43 | 340 | 2.6 | 3.5 | 0.00 | 0.00 | 0.00 | 100 | 1012.0 |
| 20260506115001 | 43 | 340 | 2.6 | 3.5 | 0.00 | 0.00 | 0.00 | 100 | 1012.0 |
| 20260506114458 | 43 | 340 | 2.6 | 3.5 | 0.00 | 0.00 | 0.00 | 100 | 1011.6 |
| 20260506113956 | 43 | 340 | 3.5 | 4.3 | 0.00 | 0.00 | 0.00 | 100 | 1011.6 |
| 20260506113454 | 43 | 340 | 2.6 | 3.5 | 0.00 | 0.00 | 0.00 | 100 | 1011.6 |
| 20260506112950 | 43 | 340 | 2.6 | 3.5 | 0.00 | 0.00 | 0.00 | 100 | 1011.3 |
| 20260506112448 | 43 | 340 | 0.9 | 2.6 | 0.00 | 0.00 | 0.00 | 100 | 1011.6 |
| 20260506111945 | 43 | 340 | 0.9 | 1.7 | 0.00 | 0.00 | 0.00 | 100 | 1011.3 |
| 20260506111443 | 43 | 340 | 2.6 | 3.5 | 0.00 | 0.00 | 0.00 | 100 | 1011.3 |
| 20260506110940 | 43 | 340 | 2.6 | 3.5 | 0.00 | 0.00 | 0.00 | 100 | 1010.9 |
| 20260506110438 | 42 | 340 | 2.6 | 3.5 | 0.00 | 0.00 | 0.00 | 100 | 1010.6 |
| 20260506105934 | 42 | 340 | 3.5 | 4.3 | 0.00 | 0.00 | 0.00 | 100 | 1010.6 |
| 20260506105430 | 42 | 340 | 1.7 | 2.6 | 0.00 | 0.00 | 0.00 | 100 | 1010.6 |
| 20260506104928 | 43 | 340 | 2.6 | 3.5 | 0.00 | 0.00 | 0.00 | 100 | 1010.6 |
| 20260506104426 | 43 | 340 | 1.7 | 2.6 | 0.00 | 0.00 | 0.00 | 100 | 1010.6 |
| 20260506103924 | 42 | 340 | 2.6 | 3.5 | 0.00 | 0.00 | 0.00 | 100 | 1010.6 |
| 20260506103421 | 42 | 340 | 3.5 | 3.5 | 0.00 | 0.00 | 0.00 | 100 | 1010.6 |
| 20260506102917 | 42 | 340 | 2.6 | 3.5 | 0.00 | 0.00 | 0.00 | 100 | 1010.6 |
| 20260506102416 | 42 | 340 | 3.5 | 3.5 | 0.00 | 0.00 | 0.00 | 100 | 1010.6 |
| 20260506101913 | 42 | 340 | 3.5 | 4.3 | 0.00 | 0.00 | 0.00 | 100 | 1010.3 |
| 20260506101409 | 42 | 340 | 3.5 | 4.3 | 0.00 | 0.00 | 0.00 | 100 | 1010.3 |
| 20260506100906 | 42 | 340 | 3.5 | 4.3 | 0.00 | 0.00 | 0.00 | 100 | 1010.3 |
| 20260506100404 | 42 | 340 | 2.6 | 3.5 | 0.00 | 0.00 | 0.00 | 100 | 1010.6 |
| 20260506095902 | 42 | 340 | 3.5 | 4.3 | 0.00 | 0.00 | 0.00 | 100 | 1010.3 |
| 20260506095400 | 42 | 340 | 2.6 | 3.5 | 0.00 | 0.00 | 0.00 | 100 | 1010.3 |
| 20260506094856 | 42 | 340 | 3.5 | 3.5 | 0.00 | 0.00 | 0.00 | 100 | 1010.3 |
| 20260506094355 | 42 | 340 | 3.5 | 4.3 | 0.00 | 0.00 | 0.00 | 100 | 1010.3 |
| 20260506093852 | 42 | 340 | 2.6 | 2.6 | 0.00 | 0.00 | 0.00 | 100 | 1010.3 |
| 20260506093350 | 42 | 340 | 3.5 | 3.5 | 0.00 | 0.00 | 0.00 | 100 | 1009.9 |
| 20260506092848 | 42 | 340 | 4.3 | 4.3 | 0.00 | 0.00 | 0.00 | 100 | 1009.9 |
| 20260506092345 | 42 | 340 | 3.5 | 5.2 | 0.00 | 0.00 | 0.00 | 100 | 1010.3 |
| 20260506091836 | 42 | 340 | 3.5 | 3.5 | 0.00 | 0.00 | 0.00 | 100 | 1009.9 |
| 20260506091334 | 42 | 340 | 5.2 | 6.1 | 0.00 | 0.00 | 0.00 | 100 | 1009.9 |
| 20260506090831 | 42 | 340 | 5.2 | 6.1 | 0.00 | 0.00 | 0.00 | 100 | 1009.9 |
| 20260506090328 | 42 | 340 | 4.3 | 5.2 | 0.00 | 0.00 | 0.00 | 100 | 1009.9 |
| 20260506085824 | 42 | 340 | 3.5 | 4.3 | 0.00 | 0.00 | 0.00 | 100 | 1009.9 |
| 20260506085320 | 42 | 340 | 4.3 | 5.2 | 0.00 | 0.00 | 0.00 | 100 | 1009.9 |
| 20260506084812 | 42 | 356 | 3.5 | 5.2 | 0.00 | 0.00 | 0.00 | 100 | 1009.9 |
| 20260506084308 | 42 | 356 | 3.5 | 4.3 | 0.00 | 0.00 | 0.00 | 100 | 1009.9 |
| 20260506083805 | 42 | 356 | 2.6 | 4.3 | 0.00 | 0.00 | 0.00 | 100 | 1009.9 |
| 20260506083303 | 42 | 356 | 2.6 | 3.5 | 0.00 | 0.00 | 0.00 | 100 | 1009.9 |
| 20260506082800 | 42 | 356 | 3.5 | 3.5 | 0.00 | 0.00 | 0.00 | 100 | 1009.6 |
| 20260506082256 | 42 | 356 | 3.5 | 4.3 | 0.00 | 0.00 | 0.00 | 100 | 1009.1 |
| 20260506081753 | 42 | 356 | 4.3 | 5.2 | 0.00 | 0.00 | 0.00 | 100 | 1009.1 |
| 20260506081251 | 42 | 356 | 3.5 | 4.3 | 0.00 | 0.00 | 0.00 | 100 | 1008.8 |
| 20260506080749 | 42 | 356 | 4.3 | 5.2 | 0.00 | 0.00 | 0.00 | 100 | 1009.1 |
| 20260506080245 | 42 | 356 | 4.3 | 5.2 | 0.00 | 0.00 | 0.00 | 100 | 1009.1 |
| 20260506073229 | 42 | 5 | 3.5 | 4.3 | 0.00 | 0.00 | 0.00 | 100 | 1009.9 |
| 20260506072726 | 42 | 6 | 2.6 | 3.5 | 0.00 | 0.00 | 0.00 | 100 | 1009.9 |
| 20260506072223 | 43 | 6 | 3.5 | 3.5 | 0.00 | 0.00 | 0.00 | 100 | 1009.6 |
| 20260506071721 | 43 | 6 | 3.5 | 3.5 | 0.00 | 0.00 | 0.00 | 100 | 1009.6 |
| 20260506071218 | 43 | 6 | 3.5 | 4.3 | 0.00 | 0.00 | 0.00 | 100 | 1009.6 |
| 20260506070715 | 43 | 6 | 4.3 | 5.2 | 0.00 | 0.00 | 0.00 | 100 | 1009.1 |
| 20260506070212 | 43 | 6 | 5.2 | 6.1 | 0.00 | 0.00 | 0.00 | 100 | 1009.1 |
| 20260506062149 | 43 | 346 | 4.3 | 5.2 | 0.00 | 0.00 | 0.00 | 99 | 1009.9 |
| 20260506061645 | 43 | 346 | 7.0 | 8.7 | 0.00 | 0.00 | 0.00 | 99 | 1009.9 |
| 20260506061143 | 43 | 346 | 6.1 | 7.0 | 0.00 | 0.00 | 0.00 | 99 | 1010.3 |
| 20260506060641 | 43 | 338 | 7.0 | 8.7 | 0.00 | 0.00 | 0.00 | 99 | 1010.3 |
| 20260506060138 | 43 | 338 | 6.1 | 7.8 | 0.00 | 0.00 | 0.00 | 99 | 1010.3 |
| 20260506051110 | 44 | 9 | 6.1 | 7.8 | 0.00 | 0.00 | 0.00 | 99 | 1009.9 |
| 20260506050608 | 44 | 9 | 7.0 | 8.7 | 0.00 | 0.00 | 0.00 | 99 | 1009.9 |
| 20260506050105 | 44 | 10 | 7.0 | 8.7 | 0.00 | 0.00 | 0.00 | 100 | 1009.9 |
| 20260506045058 | 44 | 0 | 5.2 | 6.1 | 0.00 | 0.00 | 0.00 | 100 | 1009.9 |
| 20260506044556 | 44 | 0 | 5.2 | 7.0 | 0.00 | 0.00 | 0.00 | 100 | 1009.9 |
| 20260506044052 | 44 | 0 | 7.0 | 8.7 | 0.00 | 0.00 | 0.00 | 100 | 1009.6 |
| 20260506043549 | 44 | 356 | 7.0 | 9.6 | 0.00 | 0.00 | 0.00 | 100 | 1009.6 |
| 20260506043048 | 44 | 351 | 7.8 | 9.6 | 0.00 | 0.00 | 0.00 | 100 | 1009.9 |
| 20260506042547 | 44 | 354 | 7.0 | 9.6 | 0.00 | 0.00 | 0.00 | 100 | 1010.3 |
| 20260506042044 | 44 | 354 | 7.0 | 9.6 | 0.00 | 0.00 | 0.00 | 100 | 1010.3 |
| 20260506041543 | 44 | 0 | 7.8 | 8.7 | 0.00 | 0.00 | 0.00 | 100 | 1009.9 |
| 20260506041039 | 44 | 3 | 7.8 | 9.6 | 0.00 | 0.00 | 0.00 | 100 | 1009.9 |
| 20260506040537 | 44 | 3 | 7.8 | 9.6 | 0.00 | 0.00 | 0.00 | 100 | 1009.6 |
| 20260506040032 | 44 | 13 | 9.6 | 12.2 | 0.00 | 0.68 | 0.68 | 100 | 1009.9 |
| 20260506035530 | 44 | 9 | 9.6 | 11.3 | 0.00 | 0.68 | 0.68 | 100 | 1009.6 |
| 20260506035026 | 44 | 12 | 8.7 | 10.4 | 0.00 | 0.68 | 0.68 | 100 | 1009.6 |
| 20260506034524 | 44 | 22 | 8.7 | 10.4 | 0.00 | 0.68 | 0.68 | 100 | 1009.6 |
| 20260506034021 | 44 | 3 | 7.8 | 9.6 | 0.00 | 0.68 | 0.68 | 100 | 1009.6 |
| 20260506033518 | 44 | 23 | 9.6 | 11.3 | 0.00 | 0.68 | 0.68 | 100 | 1009.6 |
| 20260506033015 | 44 | 25 | 8.7 | 10.4 | 0.00 | 0.68 | 0.68 | 99 | 1009.6 |
| 20260506032512 | 45 | 14 | 10.4 | 13.0 | 0.00 | 0.68 | 0.68 | 99 | 1009.9 |
| 20260506032009 | 45 | 18 | 11.3 | 13.0 | 0.00 | 0.68 | 0.68 | 100 | 1009.9 |
| 20260506031507 | 46 | 16 | 10.4 | 12.2 | 0.00 | 0.68 | 0.68 | 100 | 1010.3 |
| 20260506031004 | 46 | 7 | 8.7 | 10.4 | 0.00 | 0.68 | 0.68 | 100 | 1009.9 |
| 20260506030502 | 46 | 8 | 10.4 | 12.2 | 0.00 | 0.68 | 0.68 | 100 | 1009.9 |
| 20260506025959 | 46 | 23 | 11.3 | 13.0 | 0.00 | 0.68 | 0.68 | 100 | 1009.6 |
| 20260506025455 | 46 | 17 | 9.6 | 10.4 | 0.00 | 0.68 | 0.68 | 100 | 1009.6 |
| 20260506024952 | 46 | 25 | 9.6 | 11.3 | 0.00 | 0.68 | 0.68 | 100 | 1009.6 |
| 20260506024448 | 46 | 20 | 8.7 | 11.3 | 0.00 | 0.68 | 0.68 | 100 | 1009.6 |
| 20260506023944 | 46 | 31 | 6.1 | 7.8 | 0.00 | 0.68 | 0.68 | 100 | 1009.9 |
| 20260506023441 | 47 | 31 | 6.1 | 7.8 | 0.00 | 0.68 | 0.68 | 100 | 1009.9 |
| 20260506022938 | 46 | 31 | 6.1 | 7.8 | 0.00 | 0.68 | 0.68 | 100 | 1009.6 |
| 20260506022436 | 46 | 30 | 7.0 | 8.7 | 0.00 | 0.68 | 0.68 | 100 | 1009.6 |
| 20260506021934 | 46 | 41 | 4.3 | 5.2 | 0.00 | 0.68 | 0.68 | 100 | 1009.6 |
| 20260506021431 | 46 | 36 | 7.0 | 8.7 | 0.00 | 0.68 | 0.68 | 100 | 1009.9 |
| 20260506020927 | 47 | 33 | 5.2 | 7.0 | 0.00 | 0.68 | 0.68 | 100 | 1009.6 |
| 20260506020425 | 46 | 33 | 4.3 | 5.2 | 0.00 | 0.68 | 0.68 | 100 | 1009.9 |
| 20260506015922 | 46 | 33 | 5.2 | 6.1 | 0.00 | 0.68 | 0.68 | 100 | 1009.6 |
| 20260506015420 | 46 | 33 | 5.2 | 7.0 | 0.00 | 0.68 | 0.68 | 100 | 1009.6 |
| 20260506014917 | 46 | 33 | 5.2 | 6.1 | 0.00 | 0.68 | 0.68 | 100 | 1009.6 |
| 20260506014414 | 46 | 30 | 4.3 | 5.2 | 0.00 | 0.68 | 0.68 | 100 | 1009.6 |
| 20260506013910 | 46 | 30 | 5.2 | 6.1 | 0.00 | 0.68 | 0.68 | 100 | 1009.6 |
| 20260506013408 | 46 | 26 | 5.2 | 6.1 | 0.00 | 0.68 | 0.68 | 100 | 1009.6 |
| 20260506012904 | 46 | 23 | 4.3 | 5.2 | 0.00 | 0.68 | 0.68 | 100 | 1009.1 |
| 20260506012401 | 46 | 20 | 5.2 | 6.1 | 0.00 | 0.68 | 0.68 | 100 | 1009.1 |
| 20260506011858 | 46 | 20 | 6.1 | 7.0 | 0.00 | 0.68 | 0.68 | 100 | 1009.1 |
| 20260506011355 | 46 | 355 | 4.3 | 6.1 | 0.00 | 0.68 | 0.68 | 100 | 1009.1 |
| 20260506010852 | 46 | 355 | 4.3 | 5.2 | 0.00 | 0.68 | 0.68 | 100 | 1008.8 |
| 20260506010350 | 46 | 352 | 4.3 | 5.2 | 0.00 | 0.68 | 0.68 | 100 | 1008.8 |
| 20260506005847 | 46 | 349 | 5.2 | 7.0 | 0.00 | 0.68 | 0.68 | 100 | 1009.1 |
| 20260506005344 | 46 | 349 | 5.2 | 7.0 | 0.00 | 0.68 | 0.68 | 100 | 1009.1 |
| 20260506004839 | 46 | 349 | 6.1 | 7.0 | 0.00 | 0.68 | 0.68 | 100 | 1009.1 |
| 20260506004337 | 46 | 349 | 6.1 | 7.8 | 0.00 | 0.68 | 0.68 | 100 | 1009.6 |